Vorticity
3 7 5 3 2 7 15 15 9 7 7 3 5 8 1 4 4 3 6 6 5 5 5 11 9 8 11 8 9 9 5 9 11 7 5 4 4 5 4 6 4 4 4 5 5 6 5 4 5 3 4 4 5 4
2 3 6 4 0 5 4 10 11 11 16 3 5 7 -2 1 4 4 4 3 5 5 4 6 11 9 5 10 13 10 8 8 6 7 10 12 9 6 5 5 5 5 6 6 4 5 5 5 4 5 5 4 5 6
6 3 -0 1 5 6 4 5 8 6 7 11 16 6 3 3 -2 1 3 4 2 11 5 7 6 11 7 6 6 13 15 8 10 9 9 7 6 5 8 8 9 9 9 9 7 10 9 9 9 9 9 10 9 9
5 8 4 4 5 4 4 3 2 4 5 3 11 19 13 8 8 1 5 4 1 8 7 8 5 6 11 7 12 10 10 18 12 6 10 8 7 6 6 2 6 6 6 7 8 9 9 7 6 6 7 7 7 6
13 8 5 8 6 5 6 4 7 6 7 3 5 9 13 11 12 14 8 4 5 10 3 7 6 2 -1 4 -3 5 9 5 13 14 11 11 10 8 7 14 9 8 9 13 15 13 12 12 12 12 10 9 8 8
-3 4 15 3 7 7 3 4 2 6 9 10 9 8 5 7 8 9 10 10 9 10 2 9 8 10 6 5 5 5 6 5 9 6 8 10 9 11 11 9 4 4 5 6 8 6 5 6 6 7 8 9 9 9
25 35 6 4 0 6 4 2 1 3 5 4 3 8 8 4 5 6 8 7 4 7 3 6 6 7 8 5 5 6 5 6 6 7 9 11 8 6 9 9 7 8 7 6 6 4 5 5 5 7 7 7 7 7
18 16 40 13 -5 9 7 12 6 1 8 10 2 3 5 3 2 6 9 7 8 4 6 5 4 8 10 9 10 10 7 6 6 5 4 4 3 3 5 5 3 3 4 2 3 11 10 7 8 7 6 6 6 6
8 13 27 21 33 12 2 12 10 13 5 9 9 5 12 -0 3 4 4 11 10 5 6 2 4 4 3 6 7 9 9 9 6 6 7 6 7 8 6 7 7 4 6 7 5 6 6 5 6 8 8 8 8 8
13 9 11 9 14 29 42 -8 -4 12 13 15 12 11 8 2 10 10 16 5 8 7 6 4 10 9 7 6 6 6 3 2 2 3 5 5 2 3 5 6 6 5 4 5 5 6 6 7 8 7 7 8 8 9
12 11 11 10 9 9 22 34 17 5 -9 18 -1 9 11 8 6 10 16 4 3 6 4 7 14 14 13 9 9 8 7 5 3 2 5 6 3 7 7 10 8 9 10 10 10 10 10 9 10 11 11 13 14 13
13 13 13 12 13 7 5 15 7 -1 12 9 -1 15 19 5 8 18 14 10 2 3 3 9 5 6 5 9 10 9 9 8 8 7 6 5 10 8 8 7 8 7 8 10 10 11 13 15 14 15 14 13 14 12
15 14 14 13 13 14 12 6 7 12 12 13 13 6 -13 -12 13 5 10 7 6 17 6 0 5 11 18 12 10 13 13 13 12 8 8 13 11 6 9 11 12 11 14 14 15 15 13 14 16 14 13 13 11 13
16 16 13 13 14 12 13 14 10 2 18 -5 9 15 13 10 -9 13 21 14 9 9 6 13 12 11 15 13 9 18 9 11 10 20 27 12 11 8 5 10 13 13 12 11 11 12 13 13 11 13 16 18 19 14
15 16 17 15 15 15 16 16 16 16 5 16 1 -6 -3 -8 15 14 15 -4 3 9 4 11 2 -0 7 8 11 4 5 -2 8 19 5 6 9 14 18 13 14 14 11 11 10 12 14 14 13 15 14 10 8 9
16 15 14 16 15 15 15 14 14 14 18 13 11 6 -2 -1 -6 7 12 -3 -3 4 6 -4 -8 5 3 7 7 7 4 16 19 8 7 9 11 14 16 13 11 10 10 11 14 15 12 10 11 9 7 5 6 6
17 17 14 12 14 14 14 15 14 14 11 11 11 11 4 8 12 3 1 7 13 -1 -4 7 14 12 11 10 10 5 10 9 6 5 8 13 15 16 11 8 9 9 11 12 12 9 7 7 6 4 5 7 4 5
16 17 15 13 13 12 12 13 15 12 12 14 12 14 18 19 15 15 12 10 12 10 7 5 6 6 2 7 11 24 -4 7 11 12 11 11 11 7 6 7 7 8 8 9 4 1 1 1 1 2 5 5 7 8
13 12 14 14 12 12 12 13 12 14 17 17 16 15 15 13 14 14 13 13 9 9 10 1 3 4 9 16 16 8 2 3 7 9 8 5 8 11 12 10 10 11 7 4 8 8 8 12 12 9 7 9 7 8
16 13 12 14 14 12 11 12 14 17 18 17 17 15 18 19 19 16 15 14 13 13 8 2 2 7 16 18 8 -0 3 4 13 9 4 7 13 9 6 14 13 12 17 18 12 10 6 4 6 8 7 8 8 7
15 15 15 13 12 14 13 12 10 12 16 21 23 18 16 17 15 17 18 15 17 8 12 7 6 14 10 15 -4 4 4 9 6 2 6 14 14 14 7 9 14 13 12 13 11 9 10 9 8 8 7 7 4 3
16 17 20 19 18 14 13 15 16 16 16 15 13 16 19 19 17 16 16 13 13 14 11 9 10 4 8 1 1 0 13 12 9 10 15 19 14 9 5 12 16 14 10 7 6 7 7 8 7 7 7 4 2 5
20 18 22 29 18 26 31 28 33 25 27 25 14 6 14 17 19 15 16 16 15 16 14 16 -1 6 6 -5 6 13 5 11 8 9 10 10 7 5 10 5 4 8 10 10 9 8 6 7 7 6 4 4 8 13
17 24 36 -2 1 -7 -13 7 26 -3 1 17 23 22 18 23 25 22 24 21 19 23 18 15 15 1 -13 -1 13 12 15 15 6 14 7 0 4 4 6 9 7 6 4 6 7 8 9 7 5 3 6 13 19 19
6 7 25 30 30 20 -11 -3 -2 21 16 18 29 31 34 29 26 36 3 23 23 -1 -7 19 22 0 14 10 9 12 8 8 9 12 17 11 5 7 9 6 7 8 6 8 8 7 5 4 5 13 17 20 23 29
25 9 13 33 17 5 0 -18 -3 -24 -33 -20 11 36 43 38 33 37 20 19 32 32 25 -6 6 14 14 15 12 8 4 7 9 8 9 8 7 7 9 11 9 9 7 6 5 4 3 11 15 17 20 29 26 10
18 0 10 41 20 26 35 30 20 38 22 24 16 1 19 6 5 -14 -4 7 6 1 27 16 16 23 17 14 10 6 6 9 7 5 9 11 12 12 10 8 8 5 5 4 4 11 16 15 16 25 31 13 9 15
36 39 19 17 30 6 -27 -6 12 25 26 28 30 20 12 13 8 10 20 26 10 0 5 20 23 14 10 13 10 3 5 11 12 10 12 11 8 7 5 5 3 1 4 14 16 14 17 21 30 15 8 12 26 30
20 24 22 33 28 37 37 12 15 16 11 14 13 20 23 28 29 27 28 23 19 17 16 15 12 8 11 11 10 10 13 11 7 8 8 5 4 5 5 3 5 11 14 18 21 33 23 14 11 12 25 30 22 22
11 3 14 18 19 18 16 17 14 18 14 8 6 9 12 12 10 10 12 11 12 10 5 8 7 9 10 12 8 8 6 6 7 6 6 4 3 4 4 9 13 16 24 41 17 8 14 17 23 27 19 19 18 17
9 3 8 7 10 5 12 15 14 12 11 11 14 17 12 11 12 11 11 8 7 6 5 7 8 7 7 6 6 4 3 5 4 4 3 3 6 13 18 20 40 42 16 8 12 22 23 29 17 12 19 17 16 19
16 13 12 4 2 2 4 4 1 3 6 5 6 7 8 9 11 13 13 8 9 10 10 7 6 5 5 5 4 4 3 4 6 11 15 16 20 30 49 35 14 6 5 23 25 26 18 11 6 10 19 19 21 15
20 19 18 18 10 2 1 8 9 9 9 5 6 5 1 1 2 3 3 5 7 10 9 7 8 9 10 11 14 15 17 16 16 20 26 41 39 19 7 5 10 17 30 25 23 17 8 9 10 13 19 23 19 15
Height
5614 5621 5626 5633 5639 5646 5651 5657 5662 5667 5672 5677 5680 5683 5687 5689 5691 5692 5693 5694 5695 5694 5694 5693 5693 5692 5692 5692 5693 5693 5694 5693 5693 5693 5693 5693 5694 5696 5697 5698 5699 5701 5702 5703 5704 5706 5708 5708 5709 5710 5711 5711 5711 5711
5602 5609 5615 5621 5629 5635 5641 5647 5652 5658 5662 5666 5671 5674 5678 5681 5684 5686 5686 5688 5689 5690 5691 5690 5690 5690 5690 5690 5690 5690 5691 5692 5693 5693 5693 5693 5694 5695 5696 5697 5698 5700 5701 5702 5703 5704 5704 5704 5705 5705 5706 5705 5705 5705
5588 5597 5602 5609 5617 5625 5630 5637 5643 5648 5652 5656 5661 5665 5668 5672 5676 5679 5680 5681 5683 5684 5686 5687 5687 5687 5687 5687 5687 5688 5688 5688 5690 5691 5692 5692 5693 5694 5694 5695 5695 5696 5696 5697 5698 5698 5697 5698 5698 5698 5699 5698 5698 5697
5574 5584 5591 5598 5605 5613 5619 5626 5632 5637 5642 5646 5650 5654 5658 5662 5666 5670 5672 5674 5676 5678 5679 5681 5682 5682 5683 5683 5683 5683 5684 5684 5685 5687 5688 5689 5690 5691 5691 5692 5691 5690 5691 5691 5692 5690 5691 5690 5691 5691 5691 5690 5689 5688
5559 5570 5579 5585 5592 5599 5607 5614 5620 5626 5631 5635 5640 5645 5648 5651 5656 5660 5663 5665 5668 5671 5672 5674 5675 5677 5678 5678 5679 5679 5680 5680 5681 5681 5682 5683 5684 5686 5686 5686 5683 5683 5686 5686 5687 5686 5686 5685 5684 5683 5682 5681 5679 5677
5543 5555 5565 5572 5579 5586 5594 5601 5608 5614 5620 5624 5630 5635 5638 5642 5646 5649 5653 5657 5659 5661 5664 5666 5668 5669 5671 5672 5673 5674 5675 5675 5676 5677 5677 5677 5677 5679 5680 5680 5677 5677 5678 5678 5680 5679 5679 5677 5676 5675 5673 5672 5669 5667
5527 5538 5549 5559 5565 5573 5579 5587 5596 5602 5608 5613 5619 5623 5627 5632 5636 5640 5643 5648 5649 5652 5654 5657 5659 5661 5663 5664 5665 5665 5667 5668 5670 5671 5672 5672 5671 5674 5676 5675 5672 5671 5671 5671 5670 5670 5670 5669 5667 5665 5663 5661 5659 5656
5512 5523 5532 5543 5552 5558 5566 5574 5582 5591 5595 5601 5606 5612 5615 5620 5624 5629 5631 5635 5639 5642 5645 5646 5651 5653 5654 5655 5656 5657 5658 5660 5662 5662 5665 5664 5664 5665 5669 5666 5666 5666 5665 5664 5663 5662 5660 5659 5657 5655 5653 5649 5646 5643
5499 5507 5516 5525 5535 5545 5552 5561 5570 5576 5583 5588 5592 5597 5601 5608 5614 5616 5620 5624 5627 5632 5633 5635 5641 5644 5644 5645 5646 5648 5649 5650 5651 5653 5655 5655 5656 5658 5657 5657 5656 5655 5655 5654 5652 5650 5648 5646 5644 5642 5639 5636 5633 5629
5485 5493 5501 5511 5519 5528 5537 5547 5557 5564 5570 5574 5577 5581 5588 5596 5600 5603 5606 5611 5615 5618 5621 5627 5632 5633 5635 5634 5635 5638 5638 5640 5640 5644 5643 5645 5647 5649 5646 5645 5644 5643 5642 5640 5639 5638 5635 5632 5630 5627 5624 5621 5617 5613
5470 5479 5489 5497 5505 5513 5522 5529 5540 5551 5556 5558 5561 5567 5575 5580 5584 5587 5592 5598 5604 5608 5612 5617 5618 5619 5621 5623 5624 5626 5626 5628 5629 5631 5631 5633 5637 5636 5634 5632 5631 5630 5628 5627 5625 5623 5620 5617 5614 5611 5608 5605 5602 5598
5456 5465 5473 5482 5491 5499 5506 5515 5524 5532 5537 5543 5552 5557 5561 5562 5567 5573 5579 5587 5593 5597 5604 5605 5605 5607 5609 5611 5612 5613 5615 5615 5616 5619 5620 5621 5622 5620 5619 5618 5616 5615 5614 5612 5610 5607 5605 5601 5598 5595 5592 5589 5585 5580
5441 5450 5458 5467 5475 5483 5491 5498 5508 5518 5527 5529 5535 5540 5543 5543 5548 5557 5570 5579 5584 5591 5593 5592 5593 5595 5596 5598 5599 5601 5601 5603 5605 5606 5607 5610 5607 5605 5603 5602 5601 5600 5598 5596 5594 5591 5589 5586 5583 5581 5577 5573 5569 5565
5427 5435 5443 5451 5458 5465 5472 5480 5490 5499 5508 5515 5516 5518 5521 5523 5536 5552 5564 5570 5575 5577 5577 5577 5580 5582 5583 5584 5586 5588 5589 5590 5591 5595 5597 5592 5591 5591 5590 5589 5587 5585 5583 5580 5577 5575 5573 5571 5568 5565 5561 5558 5555 5551
5414 5421 5428 5435 5442 5449 5455 5462 5469 5476 5484 5492 5496 5497 5505 5521 5535 5544 5550 5555 5561 5563 5565 5566 5568 5570 5570 5571 5574 5576 5577 5578 5581 5583 5580 5580 5580 5579 5578 5576 5574 5572 5569 5567 5564 5562 5559 5557 5554 5551 5548 5545 5542 5538
5400 5406 5415 5421 5426 5431 5436 5441 5447 5454 5460 5468 5474 5486 5506 5518 5527 5530 5536 5542 5548 5549 5550 5551 5554 5556 5558 5558 5562 5563 5565 5568 5567 5566 5567 5567 5566 5565 5564 5563 5561 5558 5556 5554 5551 5549 5547 5545 5542 5540 5536 5531 5527 5523
5385 5395 5402 5405 5408 5412 5417 5423 5428 5434 5439 5449 5471 5485 5496 5507 5515 5520 5524 5528 5530 5530 5533 5534 5537 5541 5543 5544 5550 5553 5556 5553 5552 5553 5553 5553 5553 5551 5550 5549 5547 5545 5543 5541 5539 5537 5535 5532 5529 5526 5523 5517 5513 5507
5379 5383 5385 5388 5392 5396 5402 5407 5411 5416 5427 5449 5460 5473 5478 5490 5499 5504 5508 5510 5510 5512 5517 5519 5522 5524 5530 5534 5539 5543 5541 5539 5539 5540 5540 5540 5540 5539 5537 5536 5534 5532 5530 5529 5527 5524 5521 5518 5515 5511 5508 5502 5496 5488
5364 5367 5372 5376 5380 5384 5388 5393 5398 5405 5424 5436 5447 5454 5461 5470 5479 5485 5488 5490 5491 5496 5499 5501 5503 5511 5519 5525 5527 5525 5526 5526 5527 5528 5528 5527 5526 5525 5524 5523 5522 5520 5518 5515 5512 5510 5506 5502 5499 5495 5489 5484 5479 5469
5352 5357 5361 5364 5368 5371 5375 5382 5390 5398 5411 5423 5428 5436 5443 5451 5459 5462 5465 5469 5475 5477 5478 5482 5493 5502 5507 5510 5510 5511 5512 5512 5514 5514 5514 5514 5513 5513 5512 5510 5509 5506 5504 5501 5498 5494 5490 5487 5481 5475 5470 5463 5457 5452
5342 5347 5351 5354 5356 5362 5367 5372 5379 5393 5398 5403 5413 5418 5422 5430 5434 5441 5446 5453 5453 5456 5463 5473 5482 5487 5491 5494 5496 5498 5498 5499 5499 5500 5501 5501 5500 5499 5498 5497 5495 5493 5491 5486 5482 5478 5474 5469 5463 5458 5452 5444 5436 5431
5333 5337 5341 5345 5347 5351 5357 5364 5371 5378 5383 5391 5395 5401 5405 5411 5417 5422 5428 5427 5433 5444 5451 5461 5468 5472 5477 5480 5483 5484 5484 5485 5485 5485 5486 5487 5486 5485 5485 5483 5481 5479 5475 5470 5466 5463 5458 5451 5446 5440 5433 5426 5417 5409
5326 5329 5332 5335 5339 5344 5350 5354 5359 5365 5370 5375 5381 5384 5388 5394 5400 5407 5405 5413 5422 5431 5439 5448 5454 5458 5463 5467 5469 5470 5471 5472 5472 5472 5472 5473 5473 5472 5471 5467 5464 5461 5459 5454 5451 5446 5440 5433 5427 5421 5414 5406 5396 5389
5321 5323 5324 5327 5331 5338 5342 5345 5350 5355 5359 5363 5367 5371 5376 5380 5385 5388 5393 5403 5414 5421 5429 5435 5440 5445 5450 5453 5455 5456 5458 5459 5460 5460 5460 5460 5460 5458 5456 5451 5446 5444 5441 5438 5433 5429 5423 5417 5408 5402 5393 5384 5374 5365
5319 5321 5322 5322 5325 5332 5337 5341 5345 5350 5354 5356 5359 5360 5364 5369 5372 5379 5387 5396 5403 5411 5418 5423 5430 5435 5437 5439 5440 5442 5445 5448 5448 5447 5446 5447 5446 5444 5440 5434 5429 5426 5424 5420 5414 5410 5404 5397 5390 5382 5374 5363 5354 5347
5315 5318 5320 5322 5326 5330 5335 5338 5342 5348 5352 5352 5353 5354 5356 5360 5365 5371 5380 5388 5395 5403 5409 5415 5419 5422 5424 5425 5426 5428 5432 5434 5436 5435 5432 5431 5429 5426 5423 5419 5415 5412 5406 5402 5397 5391 5387 5379 5370 5362 5355 5348 5339 5330
5313 5316 5318 5322 5326 5330 5335 5339 5342 5343 5343 5344 5346 5350 5354 5356 5359 5366 5373 5379 5385 5392 5397 5402 5406 5409 5409 5410 5412 5416 5420 5422 5422 5421 5418 5414 5411 5409 5407 5404 5400 5394 5388 5384 5379 5373 5366 5359 5351 5344 5337 5332 5325 5317
5312 5314 5317 5320 5322 5326 5330 5333 5336 5337 5338 5340 5343 5346 5350 5353 5357 5362 5366 5372 5377 5383 5388 5391 5394 5395 5397 5400 5402 5404 5406 5407 5405 5403 5402 5401 5397 5393 5390 5386 5381 5376 5371 5365 5360 5353 5346 5338 5332 5328 5322 5316 5310 5302
5314 5314 5317 5318 5320 5323 5326 5330 5333 5335 5338 5339 5341 5343 5346 5350 5355 5358 5362 5367 5371 5375 5379 5382 5384 5387 5388 5389 5389 5390 5390 5389 5389 5388 5387 5387 5383 5378 5372 5368 5364 5358 5352 5348 5341 5333 5327 5323 5319 5314 5308 5302 5297 5290
5315 5316 5317 5318 5320 5322 5324 5326 5328 5331 5334 5337 5340 5343 5345 5348 5351 5354 5357 5360 5363 5365 5369 5372 5373 5376 5377 5377 5376 5374 5374 5375 5374 5374 5373 5371 5367 5362 5357 5352 5346 5341 5336 5330 5326 5323 5319 5312 5307 5302 5296 5290 5284 5279
5313 5314 5316 5318 5320 5322 5323 5325 5326 5328 5330 5332 5333 5335 5338 5340 5342 5345 5347 5350 5353 5357 5360 5363 5364 5364 5364 5364 5365 5364 5361 5360 5358 5357 5355 5352 5348 5344 5340 5335 5331 5325 5320 5318 5315 5312 5306 5302 5297 5292 5287 5281 5276 5271
5307 5308 5311 5313 5315 5318 5320 5322 5323 5325 5327 5329 5330 5332 5334 5336 5336 5337 5341 5345 5349 5351 5351 5352 5351 5352 5352 5352 5351 5349 5347 5344 5342 5339 5336 5332 5329 5327 5323 5319 5315 5313 5310 5308 5303 5299 5295 5291 5288 5284 5278 5273 5268 5264
5298 5300 5302 5305 5307 5309 5312 5314 5316 5318 5320 5322 5324 5326 5327 5328 5328 5329 5333 5335 5336 5336 5336 5337 5337 5336 5335 5335 5334 5333 5331 5328 5325 5321 5319 5318 5315 5313 5310 5308 5305 5302 5299 5296 5292 5289 5286 5283 5279 5275 5270 5265 5261 5258